Simultaneous Nadir Overpasses (SNOs) Predictions

Prediction of SNOs between LANDSAT-8 and NOAA-19 Satellite Orbit:

Table of predicted SNOs for the next 14.0 days since TLE Epoch: 8/26/2017
Index Date (LANDSAT-8) Time (LANDSAT-8) Lat,Lon (LANDSAT-8) SZA (LANDSAT-8 ) Date (NOAA-19) Time (NOAA-19) Lat,Lon (NOAA-19) SZA (NOAA-19 ) Distance(km) Time Diff (sec)
1 08/26/2017 09:24:45 -76.54,-131.18 113.61 08/26/2017 09:23:52 -76.54,-131.29 113.63 2.84 53
2 08/26/2017 10:14:12 76.48, 36.25 66.33 08/26/2017 10:14:52 76.50, 36.13 66.35 3.49 40
3 08/28/2017 14:58:29 76.52, -34.68 67.16 08/28/2017 14:57:38 76.52, -34.60 67.15 2.21 51
4 08/28/2017 15:47:57 -76.50, 132.87 112.86 08/28/2017 15:48:38 -76.47, 132.85 112.88 2.76 41
5 08/30/2017 20:32:14 -76.54, 61.94 112.02 08/30/2017 20:31:26 -76.56, 61.86 112.01 3.06 48
6 08/30/2017 21:21:41 76.47,-130.65 67.92 08/30/2017 21:22:24 76.49,-130.58 67.94 2.44 43
7 09/02/2017 02:05:57 76.56, 158.57 68.82 09/02/2017 02:05:11 76.56, 158.49 68.81 2.02 46
8 09/02/2017 02:55:26 -76.49, -34.03 111.25 09/02/2017 02:56:12 -76.50, -34.03 111.23 1.72 46
9 09/04/2017 07:39:42 -76.57,-104.82 110.35 09/04/2017 07:38:59 -76.56,-104.87 110.37 2.23 43
10 09/04/2017 08:29:09 76.50, 62.58 69.59 09/04/2017 08:29:56 76.49, 62.65 69.59 2.26 47
11 09/06/2017 13:13:25 76.58, -8.22 70.50 09/06/2017 13:12:43 76.57, -8.30 70.49 2.27 42
12 09/06/2017 14:02:54 -76.52, 159.20 109.56 09/06/2017 14:03:45 -76.51, 159.20 109.56 0.87 51
13 09/08/2017 18:47:10 -76.59, 88.39 108.64 09/08/2017 18:46:32 -76.57, 88.32 108.67 3.38 38




NCC Satellite Simultaneous Nadir Overpasses (SNOs) Prediction Service
